[[{"header":{"parameterUnit":"m.s-1","parameterCategory":1,"la1":30.2992,"la2":30.254,"lo1":-89.0895,"lo2":-89.0443,"dy":0.0025,"dx":0.0025,"nx":19,"ny":19,"refTime":"2026-04-02T09:00:00:Z","depth":0,"parameterNumber":2,"parameterNumberName":"U-component_of_WINDS"},"data":[0,0,0,-4.6826,-4.683,-4.6971,-4.6972,-4.7162,-4.7163,0,0,0,0,0,0,0,0,0,0,0,-4.6791,-4.6792,-4.6826,-4.683,-4.6971,-4.6972,-4.7161,-4.7163,0,0,0,0,0,0,0,0,0,0,0,-4.679,-4.6792,-4.6794,-4.683,-4.6971,-4.6972,-4.7161,-4.7051,0,0,0,0,0,0,0,0,0,0,-4.6912,-4.6885,-4.6792,-4.6794,-4.6831,-4.6971,-4.6972,-4.7045,-4.7058,-4.7102,0,-4.7144,0,-4.7157,-4.7177,-4.7177,0,0,0,-4.6825,-4.6875,-4.6908,-4.6794,-4.6833,-4.6971,-4.6906,-4.7052,-4.7066,-4.7118,-4.7146,-4.7153,-4.716,-4.7178,-4.7179,-4.7454,-4.7455,0,0,-4.6817,-4.682,-4.6898,-4.6917,-4.6897,-4.6901,-4.691,-4.706,-4.7091,-4.7147,-4.7157,-4.7163,-4.7179,-4.7181,-4.7453,-4.7454,0,0,0,-4.6798,-4.6814,-4.6843,-4.691,-4.6934,-4.6906,-4.6916,-4.7084,-4.7093,-4.7159,-4.7165,-4.7181,-4.7183,-4.7451,-4.7453,-4.753,0,0,0,-4.6793,-4.6803,-4.684,-4.6843,-4.6932,-4.7011,-4.6936,-4.7083,-4.71,-4.7164,-4.7181,-4.7185,-4.7449,-4.7452,-4.7525,-4.7565,0,0,0,-4.6779,-4.6801,-4.6824,-4.6843,-4.6904,-4.7009,-4.7026,-4.7086,-4.7104,-4.7178,-4.7186,-4.7448,-4.7452,-4.7519,-4.7557,-4.7637,0,0,0,-4.6765,-4.6891,-4.6826,-4.6968,-4.6903,-4.7057,-4.7025,-4.714,-4.7213,-4.7182,-4.7449,-4.7453,-4.7518,-4.7552,-4.7632,-4.7704,-4.7735,0,0,-4.6925,-4.691,-4.6994,-4.694,-4.7106,-4.7035,-4.7212,-4.7276,-4.728,-4.7396,-4.7402,-4.7526,-4.7556,-4.7636,-4.7911,-4.7936,0,0,0,-4.7045,-4.7105,-4.7149,-4.7219,-4.7272,-4.732,-4.7357,-4.7381,-4.7479,-4.734,-4.7578,-4.7596,-4.7643,-4.7677,-4.7698,-4.7737,-4.747,-4.7469,-4.7469,-4.7273,-4.7273,-4.7411,-4.7428,-4.7497,-4.7535,-4.759,-4.7628,-4.7607,-4.7664,-4.7697,-4.7864,-4.7904,-4.792,-4.796,-4.7737,-4.7737,-4.7738,-4.7738,-4.7504,-4.7588,-4.756,-4.7683,-4.7683,-4.7786,-4.7828,-4.781,-4.7905,-4.7839,-4.788,-4.7804,-4.7947,-4.7982,-4.7744,-4.7743,-4.7742,-4.7741,-4.7741,-4.7651,-4.7691,-4.772,-4.7821,-4.79,-4.7914,-4.8007,-4.8004,-4.8001,-4.8042,-4.8075,-4.8074,-4.807,-4.8059,-4.8059,-4.806,-4.806,-4.8061,-4.8061,-4.7791,-4.782,-4.79,-4.7968,-4.8012,-4.8071,-4.8112,-4.8155,-4.8203,-4.8192,-4.8193,-4.8165,-4.7962,-4.7909,-4.807,-4.8068,-4.8067,-4.8066,-4.8066,-4.8021,-4.7969,-4.8091,-4.8136,-4.8216,-4.8294,-4.829,-4.8379,-4.8415,-4.8461,-4.8427,-4.8278,-4.8261,-4.8245,-4.8201,-4.8427,-4.8427,-4.8427,-4.8427,-4.8142,-4.8135,-4.826,-4.8332,-4.8403,-4.8412,-4.8549,-4.8583,-4.8608,-4.8631,-4.8598,-4.8541,-4.8524,-4.8518,-4.8495,-4.8454,-4.874,-4.874,-4.8741,-4.8283,-4.8283,-4.84,-4.8426,-4.8489,-4.8542,-4.8671,-4.8755,-4.8774,-4.8753,-4.8647,-4.8634,-4.8542,-4.8512,-4.8485,-4.8451,-4.8375,0,0]},{"header":{"parameterUnit":"m.s-1","parameterCategory":1,"la1":30.2992,"la2":30.254,"lo1":-89.0895,"lo2":-89.0443,"dy":0.0025,"dx":0.0025,"nx":19,"ny":19,"refTime":"2026-04-02T09:00:00:Z","depth":0,"parameterNumber":3,"parameterNumberName":"V-component_of_WINDS"},"data":[0,0,0,2.658,2.6582,2.6653,2.6653,2.6747,2.6748,0,0,0,0,0,0,0,0,0,0,0,2.6563,2.6563,2.658,2.6582,2.6653,2.6653,2.6747,2.6748,0,0,0,0,0,0,0,0,0,0,0,2.6562,2.6563,2.6564,2.6582,2.6653,2.6653,2.6747,2.6692,0,0,0,0,0,0,0,0,0,0,2.6622,2.6609,2.6563,2.6564,2.6583,2.6653,2.6653,2.6689,2.6695,2.6717,0,2.6738,0,2.6745,2.6754,2.6755,0,0,0,2.6579,2.6604,2.6621,2.6564,2.6584,2.6653,2.662,2.6692,2.6699,2.6725,2.6739,2.6742,2.6746,2.6755,2.6756,2.6895,2.6895,0,0,2.6575,2.6576,2.6616,2.6625,2.6616,2.6618,2.6622,2.6696,2.6711,2.6739,2.6745,2.6748,2.6756,2.6757,2.6894,2.6895,0,0,0,2.6566,2.6574,2.6588,2.6621,2.6634,2.662,2.6625,2.6708,2.6713,2.6746,2.6749,2.6756,2.6758,2.6893,2.6894,2.6935,0,0,0,2.6564,2.6568,2.6587,2.6588,2.6633,2.6672,2.6635,2.6708,2.6716,2.6748,2.6756,2.6759,2.6892,2.6894,2.6932,2.6954,0,0,0,2.6557,2.6567,2.6579,2.6588,2.6619,2.6671,2.668,2.6709,2.6718,2.6755,2.6759,2.6892,2.6893,2.6929,2.6949,2.6992,0,0,0,2.6549,2.6612,2.658,2.6651,2.6618,2.6696,2.6679,2.6737,2.6773,2.6757,2.6892,2.6894,2.6929,2.6946,2.6989,2.7028,2.7044,0,0,2.6629,2.6621,2.6664,2.6637,2.6721,2.6685,2.6775,2.6806,2.6808,2.6865,2.6869,2.6933,2.6949,2.6991,2.7135,2.7148,0,0,0,2.6689,2.672,2.6742,2.6778,2.6805,2.683,2.6848,2.686,2.691,2.6838,2.696,2.6969,2.6994,2.7012,2.7023,2.7045,2.6903,2.6903,2.6902,2.6801,2.6803,2.6874,2.6884,2.692,2.6939,2.6968,2.6987,2.6976,2.7005,2.7022,2.7109,2.7131,2.7139,2.7162,2.7042,2.7042,2.7043,2.7043,2.6918,2.6962,2.695,2.7014,2.7015,2.7068,2.709,2.7081,2.7131,2.7096,2.7117,2.7079,2.7153,2.7173,2.7046,2.7045,2.7045,2.7044,2.7044,2.6992,2.7014,2.7029,2.7084,2.7126,2.7134,2.7184,2.7182,2.7181,2.7203,2.7221,2.722,2.722,2.7212,2.7212,2.7212,2.7213,2.7213,2.7213,2.7062,2.7079,2.7122,2.7159,2.7184,2.7216,2.7238,2.7262,2.7288,2.7283,2.7283,2.727,2.7161,2.7134,2.7218,2.7217,2.7216,2.7216,2.7216,2.718,2.7154,2.722,2.7246,2.729,2.7333,2.7332,2.7381,2.7401,2.7425,2.7409,2.7328,2.732,2.7311,2.7288,2.7408,2.7408,2.7408,2.7408,2.7243,2.7239,2.7308,2.7349,2.7389,2.7395,2.7471,2.749,2.7505,2.7517,2.75,2.747,2.7462,2.7458,2.7446,2.7425,2.7577,2.7577,2.7577,2.7316,2.7317,2.7381,2.7398,2.7434,2.7465,2.7536,2.7583,2.7595,2.7584,2.7527,2.752,2.7472,2.7456,2.7443,2.7424,2.7385,0,0]}]]